Location: Linton
(52.0940°N, 0.2850°E)
Time: 05:29:51
(UTC+00:00)

ISS - Pass Details

Date: 12 November 2017
Orbit: 402 x 407 km, 51.6° (Epoch: 23 November)

Event Time Altitude Azimuth Distance (km) Brightness Sun altitude
Exits shadow 04:52:20 54° 129° (SE) 498 -3.2 -21.6°
Drops below altitude 10° 04:54:59 10° 108° (ESE) 1,455 0.0 -21.2°
Sets 04:57:04 0° 106° (ESE) 2,314 1.4 -20.9°
